Menomonie, WI

10:01 PM CDT on August 29, 2016 (GMT -0500)
Menomonie

Weather History for KLUM - January, 2014

Change the Weather History Date:

Monday, January 27, 2014

  Actual Average (KEAU) Record (KEAU)
Temperature  
Mean Temperature -9 °F 15 °F  
Max Temperature -3 °F 24 °F 50 °F (2006)
Min Temperature -15 °F 5 °F -31 °F (1904)
Degree Days  
Heating Degree Days 74 50  
Month to date heating degree days 1370  
Since 1 July heating degree days 4546  
Cooling Degree Days 0 0  
Month to date cooling degree days 0  
Year to date cooling degree days 0  
Moisture  
Dew Point -22 °F    
Average Humidity 57    
Maximum Humidity 67    
Minimum Humidity 49    
Precipitation  
Precipitation 0.00 in 0.03 in 0.51 in (1944)
Month to date precipitation 0.77  
Year to date precipitation 0.77  
Snow  
Snow 0.00 in 0.50 in 7.00 in (2010)
Month to date snowfall 11.6  
Since 1 July snowfall 27.4  
Snow Depth -    
Sea Level Pressure  
Sea Level Pressure 30.26 in    
Wind  
Wind Speed 15 mph (West)    
Max Wind Speed 22 mph    
Max Gust Speed 31 mph    
Visibility 9 miles    
Events Snow    
T = Trace of Precipitation, MM = Missing Value Source: NWS Daily Summary

Daily Weather History Graph

Daily Weather History Graph

Search for Another Location

Airport or City:

Trip Planner

Search our weather history database for the weather conditions in past years. The results will help you decide how hot, cold, wet, or windy it might be!

Date:

Astronomy

Jan. 27, 2014 Rise Set
Actual Time 7:32 AM CST 5:08 PM CST
Civil Twilight 7:00 AM CST 5:40 PM CST
Nautical Twilight 6:25 AM CST 6:15 PM CST
Astronomical Twilight 5:50 AM CST 6:50 PM CST
Moon 4:15 AM CST (1/27) 1:53 PM CST (1/27)
Length of Visible Light 10h 39m
Length of Day
9h 36m
Waning Crescent, 14% of the Moon is Illuminated
Jan 27
Waning Crescent
Jan 30
New
Feb 6
First Quarter
Feb 14
Full
Feb 22
Last Quarter

Hourly Weather History & Observations

Time (CST) Temp. Windchill Dew Point Humidity Pressure Visibility Wind Dir Wind Speed Gust Speed Precip Events Conditions
12:15 AM -3.1 °F -24.7 °F -11.7 °F 67% 29.97 in 7.0 mi WNW 17.3 mph 23.0 mph N/A   Scattered Clouds
12:35 AM -4.0 °F -25.2 °F -14.1 °F 62% 29.98 in 4.0 mi WNW 16.1 mph 31.1 mph N/A   Haze
12:55 AM -4.5 °F -28.3 °F -15.0 °F 61% 30.00 in 7.0 mi West 20.7 mph 27.6 mph N/A   Clear
1:15 AM -5.1 °F -25.9 °F -15.3 °F 61% 30.00 in 10.0 mi WNW 15.0 mph - N/A   Clear
1:35 AM -5.8 °F -28.8 °F -15.9 °F 62% 30.02 in 7.0 mi West 18.4 mph 24.2 mph N/A   Clear
1:55 AM -6.7 °F -30.6 °F -17.7 °F 59% 30.04 in 5.0 mi West 19.6 mph 27.6 mph N/A   Haze
2:15 AM -7.4 °F -31.5 °F -18.4 °F 59% 30.05 in 7.0 mi West 19.6 mph 27.6 mph N/A   Clear
2:35 AM -8.0 °F -31.0 °F -19.3 °F 58% 30.06 in 4.0 mi WNW 17.3 mph 25.3 mph N/A Snow Light Snow
2:55 AM -8.5 °F -31.0 °F -18.0 °F 63% 30.07 in 7.0 mi WNW 16.1 mph 21.9 mph N/A   Clear
3:15 AM -9.0 °F -34.8 °F -19.1 °F 61% 30.08 in 4.0 mi WNW 21.9 mph 31.1 mph N/A   Haze
3:35 AM -9.6 °F -30.8 °F -19.7 °F 61% 30.09 in 10.0 mi West 13.8 mph 19.6 mph N/A   Clear
3:55 AM -10.3 °F -33.3 °F -19.3 °F 65% 30.11 in 5.0 mi WNW 16.1 mph 23.0 mph N/A   Haze
4:15 AM -10.7 °F -33.8 °F -20.6 °F 62% 30.12 in 7.0 mi WNW 16.1 mph 25.3 mph N/A   Clear
4:35 AM -11.4 °F -36.0 °F -21.8 °F 60% 30.13 in 10.0 mi WNW 18.4 mph 23.0 mph N/A   Clear
4:55 AM -12.1 °F -35.6 °F -22.0 °F 61% 30.14 in 10.0 mi WNW 16.1 mph - N/A   Clear
5:15 AM -12.5 °F -36.1 °F -23.1 °F 59% 30.16 in 10.0 mi WNW 16.1 mph 21.9 mph N/A   Clear
5:35 AM -13.0 °F -35.2 °F -22.9 °F 61% 30.16 in 10.0 mi West 13.8 mph 19.6 mph N/A   Clear
5:55 AM -13.5 °F -35.9 °F -23.3 °F 62% 30.18 in 10.0 mi WNW 13.8 mph 19.6 mph N/A   Clear
6:15 AM -13.9 °F -40.0 °F -24.0 °F 61% 30.19 in 7.0 mi WNW 19.6 mph 26.5 mph N/A   Clear
6:35 AM -14.3 °F -39.8 °F -25.2 °F 58% 30.20 in 7.0 mi WNW 18.4 mph 23.0 mph N/A   Clear
6:55 AM -14.8 °F -39.1 °F -24.7 °F 61% 30.20 in 7.0 mi WNW 16.1 mph 25.3 mph N/A   Clear
7:15 AM -15.2 °F -38.8 °F -25.2 °F 60% 30.21 in 10.0 mi WNW 15.0 mph - N/A   Clear
7:35 AM -15.7 °F -37.7 °F -24.9 °F 63% 30.23 in 10.0 mi WNW 12.7 mph - N/A   Clear
7:55 AM -15.7 °F -39.5 °F -25.6 °F 61% 30.24 in 10.0 mi WNW 15.0 mph - N/A   Clear
8:15 AM -15.7 °F -37.7 °F -26.1 °F 59% 30.25 in 10.0 mi West 12.7 mph - N/A   Clear
8:35 AM -15.3 °F -37.3 °F -26.5 °F 57% 30.25 in 10.0 mi West 12.7 mph 21.9 mph N/A   Clear
8:55 AM -15.0 °F -39.3 °F -26.5 °F 56% 30.27 in 7.0 mi West 16.1 mph 23.0 mph N/A   Clear
9:15 AM -14.6 °F -40.3 °F -26.1 °F 56% 30.27 in 7.0 mi West 18.4 mph 24.2 mph N/A   Clear
9:35 AM -14.1 °F -38.9 °F -26.3 °F 54% 30.28 in 7.0 mi WNW 17.3 mph 20.7 mph N/A   Clear
9:55 AM -13.9 °F -38.7 °F -26.5 °F 53% 30.30 in 10.0 mi West 17.3 mph - N/A   Clear
10:15 AM -13.5 °F -36.7 °F -25.8 °F 54% 30.31 in 10.0 mi West 15.0 mph 21.9 mph N/A   Clear
10:35 AM -13.0 °F -34.3 °F -25.8 °F 53% 30.32 in 10.0 mi West 12.7 mph 19.6 mph N/A   Clear
10:55 AM -12.1 °F -32.3 °F -25.2 °F 52% 30.32 in 10.0 mi West 11.5 mph - N/A   Clear
11:15 AM -12.3 °F -35.1 °F -25.4 °F 52% 30.33 in 7.0 mi West 15.0 mph 21.9 mph N/A   Clear
11:35 AM -11.7 °F -36.5 °F -25.1 °F 52% 30.32 in 7.0 mi West 18.4 mph 23.0 mph N/A   Clear
11:55 AM -11.2 °F -34.4 °F -24.7 °F 51% 30.32 in 7.0 mi West 16.1 mph 21.9 mph N/A   Clear
12:15 PM -9.9 °F -31.3 °F -23.8 °F 51% 30.33 in 10.0 mi West 13.8 mph - N/A   Clear
12:35 PM -9.8 °F -31.1 °F -24.2 °F 49% 30.33 in 10.0 mi West 13.8 mph 19.6 mph N/A   Clear
12:55 PM -9.2 °F -30.4 °F -23.4 °F 50% 30.32 in 10.0 mi West 13.8 mph 18.4 mph N/A   Clear
1:15 PM -8.9 °F -31.4 °F -23.6 °F 49% 30.32 in 10.0 mi West 16.1 mph 21.9 mph N/A   Clear
1:35 PM -8.5 °F -29.5 °F -22.4 °F 51% 30.32 in 7.0 mi West 13.8 mph 21.9 mph N/A   Clear
1:55 PM -7.6 °F -29.8 °F -22.0 °F 50% 30.32 in 10.0 mi West 16.1 mph - N/A   Clear
2:15 PM -7.1 °F -29.8 °F -21.5 °F 50% 30.32 in 10.0 mi West 17.3 mph - N/A   Clear
2:35 PM -6.9 °F -28.9 °F -21.3 °F 50% 30.33 in 10.0 mi West 16.1 mph 21.9 mph N/A   Clear
2:55 PM -6.7 °F -27.2 °F -21.3 °F 49% 30.33 in 10.0 mi West 13.8 mph 20.7 mph N/A   Clear
3:15 PM -6.3 °F -28.2 °F -20.9 °F 49% 30.33 in 10.0 mi West 16.1 mph 20.7 mph N/A   Clear
3:35 PM -6.0 °F -22.6 °F -20.7 °F 49% 30.34 in 10.0 mi West 9.2 mph - N/A   Clear
3:55 PM -6.3 °F -25.0 °F -20.7 °F 50% 30.34 in 10.0 mi West 11.5 mph - N/A   Clear
4:15 PM -6.7 °F -24.5 °F -21.1 °F 50% 30.34 in 10.0 mi West 10.4 mph - N/A   Clear
4:35 PM -6.9 °F -25.7 °F -20.9 °F 51% 30.35 in 10.0 mi West 11.5 mph 16.1 mph N/A   Clear
4:55 PM -7.6 °F -18.8 °F -21.1 °F 52% 30.35 in 10.0 mi West 4.6 mph - N/A   Clear
5:15 PM -8.0 °F -25.0 °F -20.9 °F 53% 30.34 in 10.0 mi West 9.2 mph - N/A   Clear
5:35 PM -8.1 °F -25.3 °F -21.1 °F 53% 30.35 in 10.0 mi West 9.2 mph - N/A   Clear
5:55 PM -8.7 °F -24.7 °F -21.5 °F 54% 30.35 in 10.0 mi West 8.1 mph - N/A   Clear
6:15 PM -9.2 °F -25.4 °F -21.8 °F 54% 30.35 in 10.0 mi West 8.1 mph - N/A   Clear
6:35 PM -9.4 °F -24.3 °F -21.6 °F 55% 30.35 in 10.0 mi West 6.9 mph - N/A   Clear
6:55 PM -9.8 °F -28.3 °F -21.5 °F 56% 30.35 in 10.0 mi West 10.4 mph - N/A   Clear
7:15 PM -9.6 °F -29.1 °F -21.3 °F 56% 30.35 in 10.0 mi WSW 11.5 mph - N/A   Clear
7:35 PM -9.9 °F -29.6 °F -21.1 °F 58% 30.35 in 10.0 mi West 11.5 mph - N/A   Clear
7:55 PM -9.8 °F -29.3 °F -21.1 °F 57% 30.35 in 10.0 mi West 11.5 mph - N/A   Clear
8:15 PM -9.8 °F -31.1 °F -20.7 °F 59% 30.35 in 10.0 mi West 13.8 mph 17.3 mph N/A   Clear
8:35 PM -9.9 °F -29.6 °F -20.7 °F 59% 30.35 in 10.0 mi West 11.5 mph - N/A   Clear
8:55 PM -10.3 °F -30.9 °F -20.7 °F 60% 30.36 in 10.0 mi WSW 12.7 mph 17.3 mph N/A   Clear
9:15 PM -10.7 °F -29.5 °F -21.1 °F 60% 30.36 in 10.0 mi West 10.4 mph - N/A   Clear
9:35 PM -11.2 °F -27.8 °F -21.1 °F 62% 30.36 in 10.0 mi West 8.1 mph - N/A   Clear
9:55 PM -11.2 °F -31.1 °F -21.1 °F 62% 30.36 in 10.0 mi West 11.5 mph - N/A   Clear
10:15 PM -11.6 °F -28.3 °F -21.3 °F 62% 30.36 in 10.0 mi West 8.1 mph - N/A   Clear
10:35 PM -12.1 °F -28.9 °F -21.5 °F 63% 30.36 in 10.0 mi West 8.1 mph - N/A   Clear
10:55 PM -12.3 °F -30.4 °F -21.5 °F 64% 30.35 in 10.0 mi WSW 9.2 mph - N/A   Clear
11:15 PM -12.5 °F -28.0 °F -22.0 °F 63% 30.35 in 10.0 mi West 6.9 mph - N/A   Clear
11:35 PM -13.0 °F -28.6 °F -22.2 °F 64% 30.35 in 10.0 mi West 6.9 mph - N/A   Clear
11:55 PM -13.2 °F -31.5 °F -22.2 °F 64% 30.35 in 10.0 mi West 9.2 mph - N/A   Clear